Regional Weather Roundup
Issued by NWS

Home | Current Version | Previous Version | Text Only | Print | Product List | Glossary Off
Versions: 1 2 3 4 5 6 7 8 9 10 11 12 13 14 15 16 17 18 19 20 21 22 23 24 25 26 27 28 29 30 31 32 33 34 35 36 37 38 39 40 41 42 43 44 45 46 47 48 49 50

089
ASUS45 KSLC 061110
RWRUT

UTAH REGIONAL WEATHER ROUNDUP
NATIONAL WEATHER SERVICE SALT LAKE CITY UT
400 AM MST TUE DEC 06 2016

UTZ001>011-023>025-061200-

NORTHERN UTAH

CITY           SKY/WX    TMP DP  RH WIND       PRES   REMARKS
BRIGHAM CITY     N/A     16   7  66 N5        29.95F WCI   9
HILL AFB       PTCLDY    14  -3  47 E20       29.91F WCI  -4
LOGAN          PTCLDY   N/A N/A N/A CALM      29.96F
OGDEN          PTCLDY    16   0  49 S8        29.92F WCI   5
SALT LAKE CITY MOCLDY    24   5  44 SE5       29.93F WCI  18
TOOELE VALLEY  CLEAR     19  14  79 S5        29.94F WCI  13
WENDOVER       CLEAR     16   0  48 CALM      29.92F
HEBER CITY     CLEAR     10   3  72 E3        29.90F
WEST JORDAN    MOCLDY    23  13  66 CALM      29.92F

$$

UTZ011>015-024>027-061200-

CENTRAL/NORTHEAST UTAH

CITY           SKY/WX    TMP DP  RH WIND       PRES   REMARKS
PROVO AIRPORT  PTCLDY    22  10  60 SE5       29.94F WCI  16
MOAB/CANYONLAN CLEAR     22   0  38 CALM      29.91F
DELTA          MOCLDY    10   5  79 CALM      29.91F
PRICE          PTCLDY    15   5  64 N3        29.88F
RICHFIELD      PTCLDY    14  10  85 S1        29.94F
ROOSEVELT      CLOUDY    21   3  45 CALM      29.97F
VERNAL         CLOUDY    18  -9  29 NW7       29.95F WCI   9

$$

UTZ013>016-019>022-027-061200-

SOUTHERN UTAH

CITY           SKY/WX    TMP DP  RH WIND       PRES   REMARKS
BRYCE CANYON   CLOUDY     8   3  80 CALM      29.85F
CEDAR CITY     MOCLDY    16  12  84 N3        29.86F
MILFORD        CLOUDY    15   5  64 S5        29.89F WCI   8
ST GEORGE      SUNNY     37  19  48 CALM      29.89S
HANKSVILLE     CLEAR     23   3  42 NW5       29.96S WCI  17
KANAB          MOCLDY    30  19  64 N1        29.91F
BLANDING       PTCLDY    24  15  67 N9        29.93F WCI  15

$$

REGIONAL REPORTS     COLORADO/ARIZONA

CITY           SKY/WX    TMP DP  RH WIND       PRES   REMARKS
CRAIG, CO      CLOUDY    -5 -11  75 SW3       29.95F
GRAND JUNCTION CLEAR     19   8  62 E8        29.93F WCI   9
RIFLE, CO      CLOUDY    23   4  44 W3        29.93F
MONTROSE, CO   CLOUDY    17   9  70 S7        29.96F WCI   8
CORTEZ, CO     CLOUDY    21  17  84 E5        29.89S WCI  15
COLORADO CITY    N/A     28  23  80 S3        29.89F
PAGE, AZ       CLOUDY    40   9  28 CALM      29.83F
GRAND CANYON   CLOUDY    27  21  78 NE3       29.92S
KINGMAN, AZ    CLOUDY    40  14  34 E3        29.86F
FLAGSTAFF, AZ  CLOUDY    32  15  49 W7        29.93F WCI  26

$$

REGIONAL REPORTS    NEVADA/IDAHO/WYOMING

CITY           SKY/WX    TMP DP  RH WIND       PRES   REMARKS
LAS VEGAS, NV  CLOUDY    46  19  34 W7        29.83R
ELY, NY        PTCLDY     7   3  84 S12       29.85F WCI  -8
ELKO, NV       PTCLDY    13   8  81 CALM      29.87F
POCATELLO, ID  CLEAR     11   4  73 E9        29.94F WCI  -2
BURLEY, ID     CLEAR      8   5  87 CALM      29.90F
FORT BRIDGER,    N/A      1 -15  46 SE6       29.88F WCI -11
EVANSTON, WY   CLOUDY     2 -17  41 SE5       29.83F WCI  -8
ROCK SPRINGS,  CLOUDY     1  -9  62 N3        29.88F
KEMMERER, WY     N/A     -9 -15  77 N10       29.85S WCI -28

$$




USA.gov is the U.S. government's official web portal to all federal, state and local government web resources and services.